Location: Mentone
(34.5413°N, 85.5351°W)
Time: 15:13:05
(UTC-05:00)

ATLAS 5 CENTAUR R/B - Pass Details

Date: 26 June 2018
Orbit: 600 x 1060 km, 63.4° (Epoch: 17 July)

Event Time Altitude Azimuth Distance (km) Brightness Sun altitude
Rises 21:53:31 0° 219° (SW) 2,837 4.9 -19.2°
Reaches altitude 10° 21:55:44 10° 224° (SW) 1,954 4.1 -19.5°
Maximum altitude 22:00:03 58° 304° (WNW) 740 2.2 -20.1°
Drops below altitude 10° 22:04:44 10° 23° (NNE) 2,125 4.6 -20.7°
Sets 22:07:14 0° 28° (NNE) 3,111 5.5 -21.1°
